This is the latest recevied weather packets stored in our database for station/object SP9KB-13. If no packets are shown the sender has not sent any weather packets the latest 10 day(s).
| Time | Temp. | Humidity | Pressure | Rain* | Wind** | Luminosity | Snow |
|---|---|---|---|---|---|---|---|
| 1778088888 | 19.44° C | 52% | 990.1 hPa | 0 mm | - | - | - |
| 1778088588 | 20° C | 51% | 990.1 hPa | 0 mm | - | - | - |
| 1778088287 | 20° C | 51% | 990.2 hPa | 0 mm | - | - | - |
| 1778087986 | 20° C | 50% | 990.2 hPa | 0 mm | - | - | - |
| 1778087686 | 20° C | 50% | 990.3 hPa | 0 mm | - | - | - |
| 1778087385 | 20° C | 50% | 990.2 hPa | 0 mm | - | - | - |
| 1778087085 | 20° C | 49% | 990.3 hPa | 0 mm | - | - | - |
| 1778086784 | 20.56° C | 50% | 990.2 hPa | 0 mm | - | - | - |
| 1778086484 | 20.56° C | 49% | 990 hPa | 0 mm | - | - | - |
| 1778086183 | 20.56° C | 49% | 990 hPa | 0 mm | - | - | - |
| 1778085883 | 21.11° C | 47% | 990 hPa | 0 mm | - | - | - |
| 1778085582 | 21.11° C | 47% | 990 hPa | 0 mm | - | - | - |
| 1778085281 | 21.11° C | 47% | 990.1 hPa | 0 mm | - | - | - |
| 1778084981 | 21.11° C | 47% | 990 hPa | 0 mm | - | - | - |
| 1778084680 | 21.11° C | 46% | 990 hPa | 0 mm | - | - | - |
| 1778084380 | 21.11° C | 48% | 990 hPa | 0 mm | - | - | - |
| 1778084079 | 21.67° C | 45% | 990 hPa | 0 mm | - | - | - |
| 1778083778 | 22.22° C | 44% | 989.8 hPa | 0 mm | - | - | - |
| 1778083478 | 22.78° C | 43% | 989.9 hPa | 0 mm | - | - | - |
| 1778083177 | 23.33° C | 42% | 989.9 hPa | 0 mm | - | - | - |
| 1778082877 | 23.89° C | 42% | 990 hPa | 0 mm | - | - | - |
| 1778082576 | 23.89° C | 42% | 990 hPa | 0 mm | - | - | - |
| 1778082276 | 23.33° C | 42% | 989.7 hPa | 0 mm | - | - | - |
| 1778081975 | 23.33° C | 42% | 989.9 hPa | 0 mm | - | - | - |
| 1778081675 | 23.33° C | 42% | 989.9 hPa | 0 mm | - | - | - |
* Rain latest hour (hover to see other rain measurements)
** Current wind speed in m/s (hover to see current wind gust speed)